This is the latest recevied weather packets stored in our database for station/object KE8WMS. If no packets are shown the sender has not sent any weather packets the latest 10 day(s).
| Time | Temp. | Humidity | Pressure | Rain* | Wind** | Luminosity | Snow |
|---|---|---|---|---|---|---|---|
| 1778192397 | 12.78° C | 45% | 1009.3 hPa | 0 mm | - | 84 W/m² | - |
| 1778192094 | 12.78° C | 45% | 1009.1 hPa | 0 mm | - | 59 W/m² | - |
| 1778191791 | 12.78° C | 46% | 1008.9 hPa | 0 mm | - | 61 W/m² | - |
| 1778191488 | 13.33° C | 44% | 1008.9 hPa | 0 mm | - | 86 W/m² | - |
| 1778191184 | 13.33° C | 46% | 1009 hPa | 0 mm | - | 256 W/m² | - |
| 1778190881 | 13.33° C | 45% | 1009.2 hPa | 0 mm | - | 271 W/m² | - |
| 1778190579 | 13.33° C | 44% | 1009.1 hPa | 0 mm | - | 285 W/m² | - |
| 1778190276 | 13.33° C | 44% | 1009 hPa | 0 mm | - | 300 W/m² | - |
| 1778189972 | 13.89° C | 42% | 1008.8 hPa | 0 mm | - | 314 W/m² | - |
| 1778189668 | 13.89° C | 44% | 1008.7 hPa | 0 mm | - | 326 W/m² | - |
| 1778189365 | 13.89° C | 46% | 1008.9 hPa | 0 mm | - | 340 W/m² | - |
| 1778189061 | 13.89° C | 46% | 1009.1 hPa | 0 mm | - | 359 W/m² | - |
| 1778188758 | 13.89° C | 45% | 1008.8 hPa | 0 mm | - | 369 W/m² | - |
| 1778188455 | 13.89° C | 47% | 1008.7 hPa | 0 mm | - | 385 W/m² | - |
| 1778188152 | 13.33° C | 49% | 1008.8 hPa | 0 mm | - | 400 W/m² | - |
| 1778187849 | 14.44° C | 50% | 1008.9 hPa | 0 mm | - | 422 W/m² | - |
| 1778187545 | 13.33° C | 52% | 1008.7 hPa | 0 mm | - | 433 W/m² | - |
| 1778187243 | 13.89° C | 51% | 1008.9 hPa | 0 mm | - | 450 W/m² | - |
| 1778186938 | 13.89° C | 56% | 1008.7 hPa | 0 mm | - | 475 W/m² | - |
| 1778186635 | 13.33° C | 54% | 1008.9 hPa | 0 mm | - | 469 W/m² | - |
| 1778186333 | 13.33° C | 53% | 1008.5 hPa | 0 mm | - | 488 W/m² | - |
| 1778186031 | 13.33° C | 53% | 1008.5 hPa | 0 mm | - | 502 W/m² | - |
| 1778185726 | 12.22° C | 58% | 1008.7 hPa | 0 mm | - | 571 W/m² | - |
| 1778185423 | 11.67° C | 59% | 1008.6 hPa | 0 mm | - | 150 W/m² | - |
| 1778185119 | 11.67° C | 57% | 1008.8 hPa | 0 mm | - | 128 W/m² | - |
* Rain latest hour (hover to see other rain measurements)
** Current wind speed in m/s (hover to see current wind gust speed)